User: anonymous   Login
Location: Boiro
(42.6475°N, 8.8834°W)
Time: 06:10:44
(UTC+01:00)
Language:

LO-87 - Orbit

View from above orbital plane
View from above orbital plane
View from above satellite
View from above satellite

Ground track
Ground track

The orbit data is extracted from the following two-line orbital elements,

1 41557U 16033B   22026.85777924  .00006016  00000-0  20166-3 0  9997
2 41557  97.3899 124.7545 0012710 155.3664 338.4704 15.31216548315697
Epoch (UTC): 26 January 2022 20:35:12
Eccentricity: 0.0012710
inclination: 97.3899°
perigee height: 463 km
apogee height: 481 km
right ascension of ascending node: 124.7545°
argument of perigee: 155.3664°
revolutions per day: 15.31216548
mean anomaly at epoch: 338.4704°
orbit number at epoch: 31569

The dashed part of the orbit path shows where the satellite is in the earth's shadow,  

DLR